トータス彗星

P/2014 C1 ( TOTAS )

English version
Home page
Updated on September 27, 2014

---------------------------------------------------------------------

・ プロフィール

発見日 2014年2月1日
発見光度 19.3等
発見者 Teide Observatory Tenerife Asteroid Survey (TOTAS)

・ 写真集

・ 軌道要素

Epoch 2013 Dec. 14.0 TT = JDT 2456640.5
T 2013 Dec. 19.38838 TT                                 MPC
q   1.6883391            (2000.0)            P               Q
n   0.18326603     Peri.   24.19892     -0.97749261     +0.21074358
a   3.0695973      Node   167.95480     -0.20038844     -0.91299785
e   0.4499803      Incl.    2.68182     -0.06597476     -0.34931657
P   5.38
From 46 observations 2014 Feb. 1-May 8, mean residual 0".6.

・ 光度変化

        m1 = 14.0 + 5 logΔ + 10.0 log r

---------------------------------------------------------------------

軌道要素はM.P.E.C. 2014-L52に掲載されたものです。
光度グラフはComet for Windowsで作成したものです。

---------------------------------------------------------------------

Copyright(C) Seiichi Yoshida (comet@aerith.net). All rights reserved.